EDT,Max TemperatureF,Mean TemperatureF,Min TemperatureF,Max Dew PointF,MeanDew PointF,Min DewpointF,Max Humidity, Mean Humidity, Min Humidity, Max Sea Level PressureIn, Mean Sea Level PressureIn, Min Sea Level PressureIn, Max VisibilityMiles, Mean VisibilityMiles, Min VisibilityMiles, Max Wind SpeedMPH, Mean Wind SpeedMPH, Max Gust SpeedMPH,PrecipitationIn, CloudCover, Events, WindDirDegrees
2013-5-1,77,58,40,36,30,23,77,36,15,30.47,30.41,30.34,10,10,10,9,2,,0.00,1,,165
2013-5-2,80,60,43,36,33,26,64,36,19,30.47,30.42,30.36,10,10,10,12,3,16,0.00,3,Rain,83
2013-5-3,70,55,40,36,30,22,59,39,23,30.54,30.44,30.35,10,10,10,8,4,,0.00,0,,189
2013-5-4,75,58,40,41,31,18,82,41,12,30.39,30.30,30.21,10,10,10,10,2,,0.00,0,,137
2013-5-5,76,58,42,35,29,23,66,36,14,30.30,30.24,30.15,10,10,10,12,6,18,0.00,0,,165
2013-5-6,77,59,41,36,26,8,71,32,9,30.24,30.17,30.08,10,10,10,10,4,16,0.00,0,,168
2013-5-7,80,62,43,41,29,14,65,32,9,30.18,30.13,30.06,10,10,10,9,3,,0.00,0,,168
2013-5-8,79,62,47,53,44,30,78,52,17,30.21,30.15,30.10,10,10,7,16,4,22,0.00,3,Rain,158
2013-5-9,72,64,55,55,50,42,89,64,35,30.08,29.95,29.89,10,10,4,12,3,22,0.00,5,Rain,188
2013-5-10,73,63,54,57,52,44,91,74,37,30.00,29.94,29.86,10,8,0,8,1,16,0.00,6,Fog-Rain,7
2013-5-11,64,58,51,59,54,46,89,84,75,29.86,29.72,29.64,10,9,3,13,5,18,0.00,7,Rain,182
2013-5-12,59,50,41,47,37,21,90,63,33,29.74,29.67,29.59,10,10,7,16,3,23,0.00,6,Rain,268
2013-5-13,48,42,36,32,25,21,83,52,37,30.05,29.86,29.73,10,10,7,20,8,24,0.00,6,Rain,238
2013-5-14,54,42,30,33,23,17,94,53,26,30.07,30.03,29.98,10,9,0,14,3,23,0.00,3,Fog,323
2013-5-15,64,45,27,46,31,20,90,64,22,30.02,29.85,29.64,10,9,2,21,4,28,0.00,3,Rain,178
2013-5-16,71,58,47,51,40,26,91,62,19,29.87,29.69,29.60,10,7,0,23,4,41,0.00,6,Fog,297
2013-5-17,60,51,43,40,36,32,87,60,38,30.23,30.07,29.88,10,10,3,16,8,22,0.00,7,,318
2013-5-18,68,54,41,42,35,28,88,52,22,30.32,30.27,30.23,10,10,2,9,1,,0.00,4,,3
2013-5-19,67,52,39,52,42,34,90,67,39,30.33,30.26,30.15,10,10,7,16,3,23,0.00,3,Rain,177
2013-5-20,69,60,52,58,53,49,91,82,52,30.14,30.03,30.00,10,6,0,13,6,20,0.00,6,Fog-Rain,219
2013-5-21,67,58,50,59,52,48,91,84,65,30.06,29.95,29.90,10,7,0,22,3,31,0.00,7,Fog-Rain,43
2013-5-22,69,60,50,62,54,48,91,85,71,29.93,29.89,29.84,10,9,3,12,6,16,0.00,8,Rain,168
2013-5-23,73,64,56,64,58,54,91,84,68,29.86,29.81,29.74,10,6,0,17,7,24,0.00,8,Fog-Rain,160
2013-5-24,59,52,43,57,46,39,91,86,79,29.98,29.84,29.69,10,6,0,14,4,22,0.00,8,Rain,322
2013-5-25,43,38,34,39,35,32,91,84,78,29.96,29.90,29.83,10,7,2,21,11,30,0.00,8,Rain-Snow,344
2013-5-26,49,42,35,39,35,32,91,79,64,30.06,29.90,29.79,10,8,3,16,9,25,0.00,7,Rain,310
2013-5-27,62,46,31,45,32,27,94,62,27,30.20,30.11,30.04,10,7,0,20,3,31,0.00,2,Fog,298
2013-5-28,71,52,34,41,35,25,92,54,21,30.26,30.20,30.14,10,10,2,9,2,16,0.00,0,,155
2013-5-29,59,54,50,56,49,36,91,80,48,30.16,30.07,29.98,10,8,0,10,4,16,0.00,7,Fog-Rain,162
2013-5-30,81,70,58,64,58,55,91,70,44,30.11,30.06,30.01,10,7,0,17,4,26,0.00,5,Fog,271
2013-5-31,87,72,56,64,58,54,91,64,35,30.12,30.04,29.94,10,8,0,13,2,21,0.00,2,Fog,226